| time (UTC) | temp F | wind direction | speed MPH | gust MPH | rain 1hr in | rain 24hr in | rain mn in | humidity % | barometer mb |
| 20260904212030 | 89 | 128 | 9.0 | 17.0 | 0.00 | 0.00 | 0.00 | 81 | 1010.5 |
| 20260904211530 | 89 | 110 | 9.0 | 17.0 | 0.00 | 0.00 | 0.00 | 81 | 1010.5 |
| 20260904211505 | 88 | 123 | 7.0 | 17.0 | 0.00 | 0.00 | 0.00 | 81 | 1010.4 |
| 20260904211034 | 89 | 103 | 9.0 | 15.0 | 0.00 | 0.00 | 0.00 | 81 | 1011.0 |
| 20260904210534 | 89 | 123 | 9.0 | 15.0 | 0.00 | 0.00 | 0.00 | 81 | 1011.0 |
| 20260904210032 | 89 | 139 | 9.0 | 18.0 | 0.00 | 0.00 | 0.00 | 82 | 1011.0 |
| 20260904210005 | 89 | 105 | 8.0 | 18.0 | 0.00 | 0.00 | 0.00 | 82 | 1010.8 |
| 20260904205533 | 89 | 129 | 10.0 | 18.0 | 0.00 | 0.00 | 0.00 | 81 | 1010.9 |
| 20260904205029 | 89 | 146 | 9.0 | 16.0 | 0.00 | 0.00 | 0.00 | 80 | 1010.9 |
| 20260904204827 | 89 | 98 | 10.0 | 16.0 | 0.00 | 0.00 | 0.00 | 81 | 1010.9 |
| 20260904204504 | 89 | 109 | 8.0 | 15.0 | 0.00 | 0.00 | 0.00 | 80 | 1010.8 |
| 20260904204321 | 89 | 104 | 9.0 | 16.0 | 0.00 | 0.00 | 0.00 | 81 | 1011.0 |
| 20260904203530 | 89 | 97 | 9.0 | 15.0 | 0.00 | 0.00 | 0.00 | 81 | 1011.0 |
| 20260904203333 | 89 | 120 | 11.0 | 17.0 | 0.00 | 0.00 | 0.00 | 82 | 1011.0 |
| 20260904203005 | 88 | 88 | 9.0 | 16.0 | 0.00 | 0.00 | 0.00 | 82 | 1010.9 |
| 20260904202529 | 89 | 82 | 10.0 | 17.0 | 0.00 | 0.00 | 0.00 | 84 | 1010.8 |
| 20260904202031 | 89 | 114 | 9.0 | 15.0 | 0.00 | 0.00 | 0.00 | 82 | 1010.8 |
| 20260904201606 | 89 | 123 | 8.0 | 14.0 | 0.00 | 0.00 | 0.00 | 81 | 1010.6 |
| 20260904201531 | 89 | 108 | 9.0 | 15.0 | 0.00 | 0.00 | 0.00 | 81 | 1010.8 |
| 20260904201029 | 89 | 136 | 10.0 | 16.0 | 0.00 | 0.00 | 0.00 | 81 | 1010.9 |
| 20260904200821 | 90 | 118 | 10.0 | 16.0 | 0.00 | 0.00 | 0.00 | 79 | 1010.9 |
| 20260904200050 | 89 | 106 | 10.0 | 15.0 | 0.00 | 0.00 | 0.00 | 79 | 1010.7 |
| 20260904200029 | 90 | 111 | 10.0 | 15.0 | 0.00 | 0.00 | 0.00 | 79 | 1010.9 |
| 20260904195530 | 90 | 101 | 8.0 | 17.0 | 0.00 | 0.00 | 0.00 | 78 | 1011.0 |
| 20260904195034 | 89 | 113 | 9.0 | 17.0 | 0.00 | 0.00 | 0.00 | 78 | 1011.0 |
| 20260904194531 | 89 | 107 | 10.0 | 16.0 | 0.00 | 0.00 | 0.00 | 78 | 1011.0 |
| 20260904194526 | 89 | 121 | 9.0 | 16.0 | 0.00 | 0.00 | 0.00 | 78 | 1010.9 |
| 20260904194029 | 89 | 138 | 9.0 | 17.0 | 0.00 | 0.00 | 0.00 | 79 | 1011.3 |
| 20260904193530 | 89 | 132 | 9.0 | 17.0 | 0.00 | 0.00 | 0.00 | 79 | 1011.3 |
| 20260904193038 | 89 | 114 | 8.0 | 13.0 | 0.00 | 0.00 | 0.00 | 79 | 1011.3 |
| 20260904193009 | 89 | 94 | 8.0 | 13.0 | 0.00 | 0.00 | 0.00 | 79 | 1011.2 |
| 20260904192531 | 89 | 142 | 8.0 | 14.0 | 0.00 | 0.00 | 0.00 | 79 | 1011.5 |
| 20260904192030 | 89 | 111 | 7.0 | 14.0 | 0.00 | 0.00 | 0.00 | 80 | 1011.5 |
| 20260904191529 | 89 | 125 | 6.0 | 15.0 | 0.00 | 0.00 | 0.00 | 83 | 1011.5 |
| 20260904191503 | 89 | 106 | 5.0 | 13.0 | 0.00 | 0.00 | 0.00 | 83 | 1011.4 |
| 20260904191028 | 89 | 115 | 9.0 | 15.0 | 0.00 | 0.00 | 0.00 | 83 | 1011.6 |
| 20260904190529 | 88 | 113 | 9.0 | 16.0 | 0.00 | 0.00 | 0.00 | 82 | 1011.6 |
| 20260904190028 | 89 | 108 | 9.0 | 16.0 | 0.00 | 0.00 | 0.00 | 82 | 1011.6 |
| 20260904190003 | 88 | 108 | 9.0 | 16.0 | 0.00 | 0.00 | 0.00 | 83 | 1011.4 |
| 20260904185530 | 88 | 132 | 8.0 | 14.0 | 0.00 | 0.00 | 0.00 | 82 | 1011.6 |
| 20260904185029 | 88 | 75 | 7.0 | 11.0 | 0.00 | 0.00 | 0.00 | 81 | 1011.6 |
| 20260904184549 | 87 | 95 | 6.0 | 18.0 | 0.00 | 0.00 | 0.00 | 82 | 1011.5 |
| 20260904184531 | 87 | 92 | 9.0 | 18.0 | 0.00 | 0.00 | 0.00 | 82 | 1011.6 |
| 20260904184029 | 87 | 115 | 10.0 | 18.0 | 0.00 | 0.00 | 0.00 | 83 | 1012.0 |
| 20260904183530 | 86 | 126 | 10.0 | 16.0 | 0.00 | 0.00 | 0.00 | 80 | 1012.0 |
| 20260904183035 | 86 | 104 | 8.0 | 16.0 | 0.00 | 0.00 | 0.00 | 82 | 1011.9 |
| 20260904183029 | 87 | 104 | 9.0 | 16.0 | 0.00 | 0.00 | 0.00 | 82 | 1012.0 |
| 20260904182616 | 88 | 103 | 9.0 | 18.0 | 0.00 | 0.00 | 0.00 | 83 | 1012.1 |
| 20260904182605 | 87 | 120 | 9.0 | 18.0 | 0.00 | 0.00 | 0.00 | 84 | 1012.1 |
| 20260904181817 | 88 | 115 | 9.0 | 16.0 | 0.00 | 0.00 | 0.00 | 82 | 1012.1 |
| 20260904181525 | 88 | 109 | 8.0 | 15.0 | 0.00 | 0.00 | 0.00 | 82 | 1012.0 |
| 20260904181029 | 89 | 101 | 10.0 | 16.0 | 0.00 | 0.00 | 0.00 | 82 | 1012.2 |
| 20260904180821 | 89 | 118 | 10.0 | 16.0 | 0.00 | 0.00 | 0.00 | 80 | 1012.2 |
| 20260904180029 | 90 | 117 | 9.0 | 14.0 | 0.00 | 0.00 | 0.00 | 80 | 1012.2 |
| 20260904180013 | 89 | 106 | 8.0 | 13.0 | 0.00 | 0.00 | 0.00 | 80 | 1012.1 |
| 20260904175529 | 90 | 84 | 8.0 | 14.0 | 0.00 | 0.00 | 0.00 | 80 | 1012.4 |
| 20260904175030 | 91 | 110 | 7.0 | 13.0 | 0.00 | 0.00 | 0.00 | 79 | 1012.4 |
| 20260904174529 | 92 | 86 | 5.0 | 13.0 | 0.00 | 0.00 | 0.00 | 78 | 1012.4 |
| 20260904174511 | 92 | 130 | 4.0 | 13.0 | 0.00 | 0.00 | 0.00 | 78 | 1012.3 |
| 20260904174031 | 93 | 109 | 3.0 | 9.0 | 0.00 | 0.00 | 0.00 | 69 | 1012.5 |
| 20260904173529 | 94 | 113 | 2.0 | 7.0 | 0.00 | 0.00 | 0.00 | 68 | 1012.5 |
| 20260904173320 | 93 | 123 | 3.0 | 9.0 | 0.00 | 0.00 | 0.00 | 68 | 1012.5 |
| 20260904172531 | 94 | 111 | 3.0 | 9.0 | 0.00 | 0.00 | 0.00 | 66 | 1012.6 |
| 20260904172031 | 95 | 113 | 2.0 | 6.0 | 0.00 | 0.00 | 0.00 | 66 | 1012.6 |
| 20260904171543 | 94 | 157 | 1.0 | 9.0 | 0.00 | 0.00 | 0.00 | 67 | 1012.4 |
| 20260904171529 | 94 | 189 | 3.0 | 9.0 | 0.00 | 0.00 | 0.00 | 67 | 1012.6 |
| 20260904171028 | 93 | 236 | 3.0 | 9.0 | 0.00 | 0.00 | 0.00 | 70 | 1012.6 |
| 20260904170529 | 94 | 111 | 2.0 | 8.0 | 0.00 | 0.00 | 0.00 | 68 | 1012.6 |
| 20260904170316 | 95 | 148 | 3.0 | 8.0 | 0.00 | 0.00 | 0.00 | 68 | 1012.6 |
| 20260904165822 | 94 | 225 | 3.0 | 8.0 | 0.00 | 0.00 | 0.00 | 65 | 1012.9 |
| 20260904165029 | 94 | 116 | 2.0 | 7.0 | 0.00 | 0.00 | 0.00 | 67 | 1012.9 |
| 20260904164530 | 95 | 123 | 2.0 | 6.0 | 0.00 | 0.00 | 0.00 | 69 | 1012.9 |
| 20260904164512 | 94 | 209 | 2.0 | 6.0 | 0.00 | 0.00 | 0.00 | 69 | 1012.7 |
| 20260904164030 | 95 | 203 | 2.0 | 6.0 | 0.00 | 0.00 | 0.00 | 68 | 1013.0 |
| 20260904163529 | 94 | 229 | 2.0 | 5.0 | 0.00 | 0.00 | 0.00 | 71 | 1013.0 |
| 20260904163030 | 93 | 233 | 3.0 | 5.0 | 0.00 | 0.00 | 0.00 | 72 | 1013.0 |
| 20260904163011 | 93 | 201 | 2.0 | 5.0 | 0.00 | 0.00 | 0.00 | 72 | 1012.9 |
| 20260904162827 | 93 | 132 | 3.0 | 7.0 | 0.00 | 0.00 | 0.00 | 71 | 1013.1 |
| 20260904162029 | 93 | 136 | 3.0 | 7.0 | 0.00 | 0.00 | 0.00 | 73 | 1013.1 |
| 20260904161618 | 92 | 210 | 3.0 | 6.0 | 0.00 | 0.00 | 0.00 | 72 | 1012.9 |
| 20260904161530 | 93 | 177 | 3.0 | 7.0 | 0.00 | 0.00 | 0.00 | 72 | 1013.1 |
| 20260904161030 | 92 | 217 | 2.0 | 7.0 | 0.00 | 0.00 | 0.00 | 72 | 1013.3 |
| 20260904160530 | 93 | 135 | 2.0 | 7.0 | 0.00 | 0.00 | 0.00 | 73 | 1013.3 |
| 20260904160318 | 92 | 209 | 1.0 | 6.0 | 0.00 | 0.00 | 0.00 | 74 | 1013.3 |
| 20260904155513 | 92 | 145 | 2.0 | 6.0 | 0.00 | 0.00 | 0.00 | 73 | 1013.5 |
| 20260904155007 | 92 | 152 | 3.0 | 8.0 | 0.00 | 0.00 | 0.00 | 73 | 1013.5 |
| 20260904154530 | 92 | 242 | 2.0 | 8.0 | 0.00 | 0.00 | 0.00 | 72 | 1013.3 |
| 20260904154505 | 92 | 229 | 3.0 | 11.0 | 0.00 | 0.00 | 0.00 | 72 | 1013.5 |
| 20260904154005 | 93 | 146 | 3.0 | 11.0 | 0.00 | 0.00 | 0.00 | 74 | 1013.5 |
| 20260904153506 | 93 | 215 | 2.0 | 8.0 | 0.00 | 0.00 | 0.00 | 74 | 1013.5 |
| 20260904153041 | 92 | 156 | 2.0 | 8.0 | 0.00 | 0.00 | 0.00 | 75 | 1013.4 |
| 20260904153006 | 93 | 174 | 3.0 | 8.0 | 0.00 | 0.00 | 0.00 | 74 | 1013.5 |
| 20260904152506 | 92 | 200 | 3.0 | 8.0 | 0.00 | 0.00 | 0.00 | 74 | 1013.4 |
| 20260904152005 | 92 | 112 | 3.0 | 8.0 | 0.00 | 0.00 | 0.00 | 74 | 1013.4 |
| 20260904151530 | 91 | 142 | 2.0 | 8.0 | 0.00 | 0.00 | 0.00 | 75 | 1013.3 |
| 20260904151506 | 92 | 123 | 3.0 | 8.0 | 0.00 | 0.00 | 0.00 | 75 | 1013.4 |
| 20260904151004 | 92 | 153 | 3.0 | 7.0 | 0.00 | 0.00 | 0.00 | 76 | 1013.3 |
| 20260904150505 | 92 | 143 | 2.0 | 7.0 | 0.00 | 0.00 | 0.00 | 76 | 1013.3 |
| 20260904150039 | 91 | 139 | 3.0 | 7.0 | 0.00 | 0.00 | 0.00 | 76 | 1013.1 |
| 20260904150005 | 92 | 110 | 3.0 | 7.0 | 0.00 | 0.00 | 0.00 | 76 | 1013.3 |
| 20260904145503 | 91 | 260 | 3.0 | 8.0 | 0.00 | 0.00 | 0.00 | 76 | 1013.1 |
| 20260904145004 | 91 | 286 | 3.0 | 8.0 | 0.00 | 0.00 | 0.00 | 75 | 1013.1 |
| 20260904144532 | 91 | 269 | 2.0 | 5.0 | 0.00 | 0.00 | 0.00 | 77 | 1013.0 |
| 20260904144503 | 92 | 219 | 2.0 | 5.0 | 0.00 | 0.00 | 0.00 | 77 | 1013.1 |
| 20260904144004 | 91 | 188 | 2.0 | 4.0 | 0.00 | 0.00 | 0.00 | 77 | 1013.1 |
| 20260904143503 | 91 | 220 | 2.0 | 6.0 | 0.00 | 0.00 | 0.00 | 80 | 1013.1 |
| 20260904143034 | 90 | 228 | 1.0 | 6.0 | 0.00 | 0.00 | 0.00 | 80 | 1012.9 |
| 20260904143002 | 90 | 194 | 2.0 | 6.0 | 0.00 | 0.00 | 0.00 | 80 | 1013.1 |
| 20260904142502 | 89 | 208 | 2.0 | 6.0 | 0.00 | 0.00 | 0.00 | 81 | 1013.0 |
| 20260904142001 | 89 | 223 | 3.0 | 7.0 | 0.00 | 0.00 | 0.00 | 82 | 1013.0 |
| 20260904141535 | 88 | 252 | 2.0 | 8.0 | 0.00 | 0.00 | 0.00 | 82 | 1012.9 |
| 20260904141502 | 88 | 230 | 3.0 | 9.0 | 0.00 | 0.00 | 0.00 | 82 | 1013.0 |
| 20260904141002 | 88 | 240 | 3.0 | 9.0 | 0.00 | 0.00 | 0.00 | 82 | 1012.7 |
| 20260904140501 | 87 | 205 | 3.0 | 8.0 | 0.00 | 0.00 | 0.00 | 83 | 1012.7 |
| 20260904140028 | 87 | 233 | 3.0 | 9.0 | 0.00 | 0.00 | 0.00 | 83 | 1012.6 |
| 20260904140002 | 87 | 272 | 3.0 | 9.0 | 0.00 | 0.00 | 0.00 | 83 | 1012.7 |
| 20260904135501 | 87 | 252 | 3.0 | 9.0 | 0.00 | 0.00 | 0.00 | 83 | 1012.7 |
| 20260904135257 | 87 | 213 | 2.0 | 7.0 | 0.00 | 0.00 | 0.00 | 83 | 1012.7 |
| 20260904134511 | 87 | 141 | 2.0 | 6.0 | 0.00 | 0.00 | 0.00 | 84 | 1012.5 |
| 20260904134501 | 87 | 146 | 2.0 | 6.0 | 0.00 | 0.00 | 0.00 | 84 | 1012.7 |
| 20260904134001 | 87 | 275 | 1.0 | 4.0 | 0.00 | 0.00 | 0.00 | 85 | 1012.6 |
| 20260904133503 | 87 | 205 | 1.0 | 5.0 | 0.00 | 0.00 | 0.00 | 85 | 1012.6 |
| 20260904133020 | 86 | 158 | 0.0 | 6.0 | 0.00 | 0.00 | 0.00 | 85 | 1012.4 |
| 20260904133004 | 86 | 158 | 2.0 | 6.0 | 0.00 | 0.00 | 0.00 | 85 | 1012.6 |
| 20260904132502 | 86 | 241 | 2.0 | 7.0 | 0.00 | 0.00 | 0.00 | 86 | 1012.5 |
| 20260904132003 | 85 | 177 | 2.0 | 7.0 | 0.00 | 0.00 | 0.00 | 86 | 1012.5 |
| 20260904131508 | 85 | 213 | 0.0 | 5.0 | 0.00 | 0.00 | 0.00 | 87 | 1012.4 |
| 20260904131503 | 85 | 209 | 1.0 | 5.0 | 0.00 | 0.00 | 0.00 | 87 | 1012.5 |
| 20260904131251 | 85 | 203 | 0.0 | 3.0 | 0.00 | 0.00 | 0.00 | 87 | 1012.5 |
| 20260904130502 | 85 | 198 | 0.0 | 3.0 | 0.00 | 0.00 | 0.00 | 88 | 1012.5 |
| 20260904130009 | 84 | 190 | 0.0 | 3.0 | 0.00 | 0.00 | 0.00 | 88 | 1012.3 |
| 20260904130004 | 84 | 190 | 0.0 | 3.0 | 0.00 | 0.00 | 0.00 | 88 | 1012.5 |
| 20260904125503 | 84 | 243 | 0.0 | 3.0 | 0.00 | 0.00 | 0.00 | 88 | 1012.1 |
| 20260904125002 | 83 | 196 | 0.0 | 4.0 | 0.00 | 0.00 | 0.00 | 89 | 1012.1 |
| 20260904124508 | 83 | 221 | 0.0 | 4.0 | 0.00 | 0.00 | 0.00 | 89 | 1012.0 |
| 20260904124503 | 83 | 221 | 0.0 | 4.0 | 0.00 | 0.00 | 0.00 | 89 | 1012.1 |
| 20260904124002 | 83 | 214 | 0.0 | 3.0 | 0.00 | 0.00 | 0.00 | 90 | 1012.1 |
| 20260904123503 | 82 | 194 | 1.0 | 4.0 | 0.00 | 0.00 | 0.00 | 91 | 1012.1 |
| 20260904123008 | 81 | 200 | 0.0 | 4.0 | 0.00 | 0.00 | 0.00 | 91 | 1012.0 |
| 20260904123003 | 81 | 194 | 0.0 | 4.0 | 0.00 | 0.00 | 0.00 | 91 | 1012.1 |
| 20260904122503 | 81 | 225 | 0.0 | 2.0 | 0.00 | 0.00 | 0.00 | 92 | 1012.0 |
| 20260904122003 | 80 | 200 | 0.0 | 0.0 | 0.00 | 0.00 | 0.00 | 92 | 1012.0 |
| 20260904121514 | 79 | 199 | 0.0 | 1.0 | 0.00 | 0.00 | 0.00 | 92 | 1011.9 |
| 20260904121509 | 80 | 199 | 0.0 | 1.0 | 0.00 | 0.00 | 0.00 | 92 | 1012.0 |
| 20260904121007 | 79 | 196 | 0.0 | 1.0 | 0.00 | 0.00 | 0.00 | 92 | 1012.0 |
| 20260904120504 | 79 | 185 | 0.0 | 0.0 | 0.00 | 0.00 | 0.00 | 92 | 1012.0 |
| 20260904120014 | 78 | 185 | 0.0 | 0.0 | 0.00 | 0.00 | 0.00 | 92 | 1011.9 |
| 20260904120003 | 79 | 185 | 0.0 | 0.0 | 0.00 | 0.00 | 0.00 | 92 | 1012.0 |
| 20260904115504 | 79 | 185 | 0.0 | 0.0 | 0.00 | 0.00 | 0.00 | 92 | 1011.8 |
| 20260904115004 | 79 | 185 | 0.0 | 1.0 | 0.00 | 0.00 | 0.00 | 92 | 1011.8 |
| 20260904114508 | 78 | 182 | 0.0 | 1.0 | 0.00 | 0.00 | 0.00 | 92 | 1011.7 |
| 20260904114502 | 79 | 182 | 0.0 | 1.0 | 0.00 | 0.00 | 0.00 | 92 | 1011.8 |
| 20260904114002 | 79 | 148 | 0.0 | 0.0 | 0.00 | 0.00 | 0.00 | 93 | 1011.5 |
| 20260904113505 | 79 | 148 | 0.0 | 0.0 | 0.00 | 0.00 | 0.00 | 93 | 1011.5 |
| 20260904113054 | 78 | 148 | 0.0 | 0.0 | 0.00 | 0.00 | 0.00 | 92 | 1011.4 |
| 20260904113001 | 79 | 148 | 0.0 | 0.0 | 0.00 | 0.00 | 0.00 | 92 | 1011.5 |
| 20260904112501 | 78 | 148 | 0.0 | 0.0 | 0.00 | 0.00 | 0.00 | 92 | 1011.5 |
| 20260904112002 | 78 | 115 | 0.0 | 0.0 | 0.00 | 0.00 | 0.00 | 92 | 1011.5 |
| 20260904111539 | 78 | 115 | 0.0 | 0.0 | 0.00 | 0.00 | 0.00 | 92 | 1011.4 |
| 20260904111501 | 78 | 115 | 0.0 | 0.0 | 0.00 | 0.00 | 0.00 | 92 | 1011.5 |
| 20260904111250 | 78 | 115 | 0.0 | 0.0 | 0.00 | 0.00 | 0.00 | 92 | 1011.4 |
| 20260904110501 | 78 | 115 | 0.0 | 0.0 | 0.00 | 0.00 | 0.00 | 92 | 1011.4 |
| 20260904110031 | 78 | 115 | 0.0 | 0.0 | 0.00 | 0.00 | 0.00 | 92 | 1011.3 |
| 20260904110001 | 78 | 115 | 0.0 | 0.0 | 0.00 | 0.00 | 0.00 | 92 | 1011.4 |
| 20260904105750 | 78 | 115 | 0.0 | 0.0 | 0.00 | 0.00 | 0.00 | 92 | 1011.2 |
| 20260904105000 | 78 | 115 | 0.0 | 0.0 | 0.00 | 0.00 | 0.00 | 92 | 1011.2 |
| 20260904104534 | 78 | 115 | 0.0 | 0.0 | 0.00 | 0.00 | 0.00 | 92 | 1011.1 |
| 20260904104503 | 78 | 115 | 0.0 | 0.0 | 0.00 | 0.00 | 0.00 | 92 | 1011.2 |
| 20260904104251 | 78 | 115 | 0.0 | 0.0 | 0.00 | 0.00 | 0.00 | 92 | 1011.2 |
| 20260904103502 | 78 | 115 | 0.0 | 0.0 | 0.00 | 0.00 | 0.00 | 92 | 1011.2 |
| 20260904103038 | 78 | 115 | 0.0 | 0.0 | 0.00 | 0.00 | 0.00 | 92 | 1011.0 |
| 20260904103002 | 78 | 115 | 0.0 | 0.0 | 0.00 | 0.00 | 0.00 | 92 | 1011.2 |
| 20260904102500 | 79 | 115 | 0.0 | 0.0 | 0.00 | 0.00 | 0.00 | 92 | 1011.0 |
| 20260904102001 | 79 | 115 | 0.0 | 0.0 | 0.00 | 0.00 | 0.00 | 92 | 1011.0 |
| 20260904101509 | 78 | 115 | 0.0 | 0.0 | 0.00 | 0.00 | 0.00 | 92 | 1010.9 |
| 20260904101502 | 79 | 115 | 0.0 | 1.0 | 0.00 | 0.00 | 0.00 | 92 | 1011.0 |
| 20260904101245 | 78 | 115 | 0.0 | 1.0 | 0.00 | 0.00 | 0.00 | 92 | 1010.7 |
| 20260904100502 | 78 | 96 | 0.0 | 0.0 | 0.00 | 0.00 | 0.00 | 92 | 1010.7 |
| 20260904100009 | 78 | 96 | 0.0 | 0.0 | 0.00 | 0.00 | 0.00 | 92 | 1010.6 |
| 20260904100004 | 79 | 96 | 0.0 | 0.0 | 0.00 | 0.00 | 0.00 | 92 | 1010.7 |
| 20260904095503 | 79 | 96 | 0.0 | 0.0 | 0.00 | 0.00 | 0.00 | 92 | 1010.6 |
| 20260904095244 | 79 | 96 | 0.0 | 0.0 | 0.00 | 0.00 | 0.00 | 92 | 1010.6 |
| 20260904094512 | 78 | 96 | 0.0 | 0.0 | 0.00 | 0.00 | 0.00 | 92 | 1010.5 |
| 20260904094502 | 79 | 96 | 0.0 | 0.0 | 0.00 | 0.00 | 0.00 | 92 | 1010.6 |
| 20260904094005 | 79 | 96 | 0.0 | 0.0 | 0.00 | 0.00 | 0.00 | 92 | 1010.6 |
| 20260904093502 | 78 | 96 | 0.0 | 0.0 | 0.00 | 0.00 | 0.00 | 92 | 1010.6 |
| 20260904093245 | 78 | 96 | 0.0 | 0.0 | 0.00 | 0.00 | 0.00 | 92 | 1010.6 |
| 20260904092501 | 79 | 96 | 0.0 | 0.0 | 0.00 | 0.00 | 0.00 | 92 | 1010.5 |
| 20260904092002 | 79 | 96 | 0.0 | 0.0 | 0.00 | 0.00 | 0.00 | 92 | 1010.5 |
| 20260904091533 | 78 | 96 | 0.0 | 0.0 | 0.00 | 0.00 | 0.00 | 92 | 1010.4 |
| 20260904091502 | 78 | 96 | 0.0 | 0.0 | 0.00 | 0.00 | 0.00 | 92 | 1010.5 |
| 20260904091258 | 78 | 96 | 0.0 | 0.0 | 0.00 | 0.00 | 0.00 | 92 | 1010.5 |
| 20260904090501 | 79 | 96 | 0.0 | 0.0 | 0.00 | 0.00 | 0.00 | 92 | 1010.5 |
| 20260904090031 | 78 | 96 | 0.0 | 0.0 | 0.00 | 0.00 | 0.00 | 92 | 1010.4 |
| 20260904090001 | 79 | 96 | 0.0 | 0.0 | 0.00 | 0.00 | 0.00 | 92 | 1010.5 |
| 20260904085757 | 79 | 96 | 0.0 | 0.0 | 0.00 | 0.00 | 0.00 | 92 | 1010.5 |
| 20260904085002 | 79 | 96 | 0.0 | 0.0 | 0.00 | 0.00 | 0.00 | 92 | 1010.5 |
| 20260904084509 | 78 | 96 | 0.0 | 0.0 | 0.00 | 0.00 | 0.00 | 92 | 1010.3 |
| 20260904084504 | 79 | 96 | 0.0 | 1.0 | 0.00 | 0.00 | 0.00 | 92 | 1010.5 |
| 20260904084250 | 79 | 96 | 0.0 | 1.0 | 0.00 | 0.00 | 0.00 | 92 | 1010.5 |
| 20260904083505 | 79 | 96 | 0.0 | 1.0 | 0.00 | 0.00 | 0.00 | 92 | 1010.5 |
| 20260904083008 | 78 | 96 | 0.0 | 0.0 | 0.00 | 0.00 | 0.00 | 92 | 1010.3 |
| 20260904083003 | 79 | 96 | 0.0 | 0.0 | 0.00 | 0.00 | 0.00 | 92 | 1010.5 |
| 20260904082504 | 79 | 96 | 0.0 | 0.0 | 0.00 | 0.00 | 0.00 | 92 | 1010.5 |
| 20260904082004 | 79 | 96 | 0.0 | 0.0 | 0.00 | 0.00 | 0.00 | 92 | 1010.5 |
| 20260904081509 | 78 | 96 | 0.0 | 1.0 | 0.00 | 0.00 | 0.00 | 92 | 1010.4 |
| 20260904081504 | 79 | 96 | 0.0 | 1.0 | 0.00 | 0.00 | 0.00 | 92 | 1010.5 |
| 20260904080957 | 79 | 96 | 0.0 | 1.0 | 0.00 | 0.00 | 0.00 | 92 | 1010.5 |
| 20260904080456 | 79 | 96 | 0.0 | 0.0 | 0.00 | 0.00 | 0.00 | 92 | 1010.5 |
| 20260904080006 | 78 | 96 | 0.0 | 0.0 | 0.00 | 0.00 | 0.00 | 92 | 1010.3 |
| 20260904075955 | 79 | 96 | 0.0 | 0.0 | 0.00 | 0.00 | 0.00 | 92 | 1010.5 |
| 20260904075745 | 79 | 96 | 0.0 | 0.0 | 0.00 | 0.00 | 0.00 | 92 | 1010.3 |
| 20260904074954 | 79 | 96 | 0.0 | 0.0 | 0.00 | 0.00 | 0.00 | 92 | 1010.3 |
| 20260904074503 | 78 | 96 | 0.0 | 0.0 | 0.00 | 0.00 | 0.00 | 91 | 1010.2 |
| 20260904074454 | 79 | 96 | 0.0 | 0.0 | 0.00 | 0.00 | 0.00 | 91 | 1010.3 |
| 20260904073952 | 79 | 96 | 0.0 | 0.0 | 0.00 | 0.00 | 0.00 | 91 | 1010.2 |
| 20260904073621 | 79 | 96 | 0.0 | 0.0 | 0.00 | 0.00 | 0.00 | 92 | 1010.4 |
| 20260904073552 | 79 | 96 | 0.0 | 0.0 | 0.00 | 0.00 | 0.00 | 92 | 1010.2 |
| 20260904073018 | 79 | 96 | 0.0 | 0.0 | 0.00 | 0.00 | 0.00 | 92 | 1010.2 |
| 20260904071946 | 79 | 96 | 0.0 | 0.0 | 0.00 | 0.00 | 0.00 | 92 | 1010.4 |
| 20260904071535 | 79 | 96 | 0.0 | 0.0 | 0.00 | 0.00 | 0.00 | 92 | 1010.3 |
| 20260904071443 | 79 | 96 | 0.0 | 0.0 | 0.00 | 0.00 | 0.00 | 92 | 1010.4 |
| 20260904071238 | 79 | 96 | 0.0 | 1.0 | 0.00 | 0.00 | 0.00 | 92 | 1010.5 |
| 20260904070444 | 79 | 96 | 0.0 | 1.0 | 0.00 | 0.00 | 0.00 | 92 | 1010.5 |
| 20260904070032 | 79 | 96 | 0.0 | 0.0 | 0.00 | 0.00 | 0.00 | 92 | 1010.3 |
| 20260904065941 | 79 | 96 | 0.0 | 0.0 | 0.00 | 0.00 | 0.00 | 92 | 1010.5 |
| 20260904065436 | 79 | 96 | 0.0 | 0.0 | 0.00 | 0.00 | 0.00 | 92 | 1010.5 |
| 20260904064934 | 79 | 95 | 0.0 | 0.0 | 0.00 | 0.00 | 0.00 | 92 | 1010.5 |
| 20260904064526 | 79 | 96 | 0.0 | 0.0 | 0.00 | 0.00 | 0.00 | 92 | 1010.4 |
| 20260904064431 | 79 | 96 | 0.0 | 1.0 | 0.00 | 0.00 | 0.00 | 92 | 1010.5 |
| 20260904063930 | 79 | 95 | 0.0 | 1.0 | 0.00 | 0.00 | 0.00 | 92 | 1010.6 |
| 20260904063453 | 79 | 95 | 0.0 | 0.0 | 0.00 | 0.00 | 0.00 | 92 | 1010.6 |
| 20260904063010 | 79 | 96 | 0.0 | 0.0 | 0.00 | 0.00 | 0.00 | 92 | 1010.5 |
| 20260904062929 | 79 | 96 | 0.0 | 0.0 | 0.00 | 0.00 | 0.00 | 92 | 1010.6 |
| 20260904062429 | 79 | 96 | 0.0 | 1.0 | 0.00 | 0.00 | 0.00 | 92 | 1010.7 |
| 20260904061931 | 79 | 96 | 0.0 | 1.0 | 0.00 | 0.00 | 0.00 | 92 | 1010.7 |
| 20260904061727 | 79 | 95 | 0.0 | 1.0 | 0.00 | 0.00 | 0.00 | 92 | 1010.7 |
| 20260904061647 | 79 | 96 | 0.0 | 1.0 | 0.00 | 0.00 | 0.00 | 92 | 1010.5 |
| 20260904061316 | 79 | 95 | 0.0 | 0.0 | 0.00 | 0.00 | 0.00 | 92 | 1011.0 |
| 20260904061005 | 79 | 95 | 0.0 | 0.0 | 0.00 | 0.00 | 0.00 | 92 | 1011.0 |
| 20260904060005 | 79 | 95 | 0.0 | 0.0 | 0.00 | 0.00 | 0.00 | 92 | 1010.9 |
| 20260904055930 | 79 | 95 | 0.0 | 0.0 | 0.00 | 0.00 | 0.00 | 92 | 1011.0 |
| 20260904055430 | 79 | 95 | 0.0 | 0.0 | 0.00 | 0.00 | 0.00 | 92 | 1011.1 |
| 20260904055224 | 79 | 95 | 0.0 | 0.0 | 0.00 | 0.00 | 0.00 | 92 | 1011.1 |
| 20260904054509 | 79 | 95 | 0.0 | 0.0 | 0.00 | 0.00 | 0.00 | 92 | 1010.9 |
| 20260904054425 | 79 | 95 | 0.0 | 1.0 | 0.00 | 0.00 | 0.00 | 92 | 1011.1 |
| 20260904053923 | 79 | 95 | 0.0 | 1.0 | 0.00 | 0.00 | 0.00 | 92 | 1011.1 |
| 20260904053424 | 79 | 95 | 0.0 | 0.0 | 0.00 | 0.00 | 0.00 | 92 | 1011.1 |
| 20260904053040 | 78 | 95 | 0.0 | 0.0 | 0.00 | 0.00 | 0.00 | 92 | 1011.0 |
| 20260904052924 | 79 | 95 | 0.0 | 1.0 | 0.00 | 0.00 | 0.00 | 92 | 1011.1 |
| 20260904052425 | 78 | 95 | 0.0 | 1.0 | 0.00 | 0.00 | 0.00 | 92 | 1011.2 |
| 20260904051922 | 79 | 96 | 0.0 | 1.0 | 0.00 | 0.00 | 0.00 | 91 | 1011.2 |
| 20260904051537 | 78 | 95 | 0.0 | 1.0 | 0.00 | 0.00 | 0.00 | 92 | 1011.0 |
| 20260904051423 | 79 | 95 | 0.0 | 1.0 | 0.00 | 0.00 | 0.00 | 91 | 1011.2 |
| 20260904050924 | 79 | 95 | 0.0 | 0.0 | 0.00 | 0.00 | 0.00 | 91 | 1011.2 |
| 20260904050423 | 79 | 112 | 0.0 | 0.0 | 0.00 | 0.00 | 0.00 | 91 | 1011.2 |
| 20260904050010 | 78 | 112 | 0.0 | 0.0 | 0.00 | 0.00 | 0.00 | 91 | 1011.1 |
| 20260904045921 | 79 | 112 | 0.0 | 0.0 | 0.00 | 0.00 | 0.00 | 91 | 1011.2 |
| 20260904045419 | 79 | 112 | 0.0 | 0.0 | 0.00 | 0.00 | 0.00 | 91 | 1011.2 |
| 20260904044916 | 79 | 112 | 0.0 | 1.0 | 0.00 | 0.00 | 0.00 | 91 | 1011.2 |
| 20260904044605 | 79 | 112 | 0.0 | 1.0 | 0.00 | 0.00 | 0.00 | 91 | 1011.1 |
| 20260904044415 | 79 | 112 | 0.0 | 1.0 | 0.00 | 0.00 | 0.00 | 91 | 1011.4 |
| 20260904043908 | 79 | 112 | 0.0 | 0.0 | 0.00 | 0.00 | 0.00 | 91 | 1011.4 |
| 20260904043407 | 80 | 112 | 0.0 | 0.0 | 0.00 | 0.00 | 0.00 | 91 | 1011.4 |
| 20260904043053 | 79 | 112 | 0.0 | 0.0 | 0.00 | 0.00 | 0.00 | 91 | 1011.2 |
| 20260904042913 | 80 | 112 | 0.0 | 0.0 | 0.00 | 0.00 | 0.00 | 91 | 1011.2 |
| 20260904042412 | 80 | 112 | 0.0 | 0.0 | 0.00 | 0.00 | 0.00 | 91 | 1011.2 |
| 20260904041910 | 80 | 112 | 0.0 | 0.0 | 0.00 | 0.00 | 0.00 | 91 | 1011.2 |
| 20260904041531 | 79 | 112 | 0.0 | 0.0 | 0.00 | 0.00 | 0.00 | 91 | 1011.1 |
| 20260904041410 | 80 | 112 | 0.0 | 0.0 | 0.00 | 0.00 | 0.00 | 91 | 1011.4 |
| 20260904040909 | 80 | 112 | 0.0 | 0.0 | 0.00 | 0.00 | 0.00 | 91 | 1011.4 |
| 20260904040409 | 80 | 112 | 0.0 | 1.0 | 0.00 | 0.00 | 0.00 | 90 | 1011.4 |
| 20260904040015 | 79 | 112 | 0.0 | 1.0 | 0.00 | 0.00 | 0.00 | 90 | 1011.3 |
| 20260904035907 | 80 | 112 | 0.0 | 1.0 | 0.00 | 0.00 | 0.00 | 90 | 1011.3 |
| 20260904035404 | 80 | 111 | 0.0 | 1.0 | 0.00 | 0.00 | 0.00 | 90 | 1011.3 |
| 20260904034903 | 80 | 112 | 0.0 | 1.0 | 0.00 | 0.00 | 0.00 | 91 | 1011.3 |
| 20260904034503 | 80 | 112 | 0.0 | 1.0 | 0.00 | 0.00 | 0.00 | 90 | 1011.2 |
| 20260904034402 | 80 | 112 | 0.0 | 1.0 | 0.00 | 0.00 | 0.00 | 90 | 1011.3 |
| 20260904033902 | 80 | 112 | 1.0 | 1.0 | 0.00 | 0.00 | 0.00 | 90 | 1011.3 |
| 20260904033403 | 80 | 110 | 1.0 | 1.0 | 0.00 | 0.00 | 0.00 | 91 | 1011.3 |
| 20260904033003 | 79 | 108 | 0.0 | 1.0 | 0.00 | 0.00 | 0.00 | 90 | 1011.2 |
| 20260904032903 | 80 | 107 | 0.0 | 1.0 | 0.00 | 0.00 | 0.00 | 90 | 1011.4 |
| 20260904032404 | 79 | 95 | 0.0 | 0.0 | 0.00 | 0.00 | 0.00 | 90 | 1011.4 |
| 20260904031945 | 80 | 95 | 0.0 | 0.0 | 0.00 | 0.00 | 0.00 | 90 | 1011.5 |
| 20260904031934 | 80 | 94 | 0.0 | 0.0 | 0.00 | 0.00 | 0.00 | 90 | 1011.4 |
| 20260904031616 | 79 | 95 | 0.0 | 0.0 | 0.00 | 0.00 | 0.00 | 90 | 1011.3 |
| 20260904030902 | 80 | 94 | 0.0 | 0.0 | 0.00 | 0.00 | 0.00 | 90 | 1011.5 |
| 20260904030401 | 80 | 94 | 0.0 | 1.0 | 0.00 | 0.00 | 0.00 | 90 | 1011.5 |
| 20260904030147 | 80 | 94 | 1.0 | 2.0 | 0.00 | 0.00 | 0.00 | 90 | 1011.5 |
| 20260904030128 | 80 | 95 | 0.0 | 2.0 | 0.00 | 0.00 | 0.00 | 90 | 1011.4 |
| 20260904025401 | 80 | 96 | 1.0 | 2.0 | 0.00 | 0.00 | 0.00 | 90 | 1011.5 |
| 20260904024902 | 80 | 116 | 1.0 | 2.0 | 0.00 | 0.00 | 0.00 | 90 | 1011.5 |
| 20260904024554 | 80 | 107 | 1.0 | 2.0 | 0.00 | 0.00 | 0.00 | 90 | 1011.4 |
| 20260904024401 | 80 | 129 | 1.0 | 2.0 | 0.00 | 0.00 | 0.00 | 90 | 1011.6 |
| 20260904024152 | 80 | 125 | 1.0 | 3.0 | 0.00 | 0.00 | 0.00 | 90 | 1011.6 |
| 20260904023402 | 80 | 124 | 2.0 | 4.0 | 0.00 | 0.00 | 0.00 | 90 | 1011.6 |
| 20260904023034 | 80 | 146 | 0.0 | 4.0 | 0.00 | 0.00 | 0.00 | 90 | 1011.4 |
| 20260904022902 | 80 | 113 | 2.0 | 4.0 | 0.00 | 0.00 | 0.00 | 90 | 1011.6 |
| 20260904022655 | 80 | 121 | 1.0 | 3.0 | 0.00 | 0.00 | 0.00 | 90 | 1011.6 |
| 20260904021901 | 80 | 138 | 0.0 | 2.0 | 0.00 | 0.00 | 0.00 | 90 | 1011.6 |
| 20260904021538 | 79 | 219 | 0.0 | 2.0 | 0.00 | 0.00 | 0.00 | 89 | 1011.4 |
| 20260904021401 | 80 | 219 | 0.0 | 2.0 | 0.00 | 0.00 | 0.00 | 89 | 1011.7 |
| 20260904020902 | 80 | 207 | 0.0 | 2.0 | 0.00 | 0.00 | 0.00 | 89 | 1011.7 |
| 20260904020401 | 80 | 190 | 0.0 | 1.0 | 0.00 | 0.00 | 0.00 | 89 | 1011.7 |
| 20260904020008 | 80 | 117 | 0.0 | 1.0 | 0.00 | 0.00 | 0.00 | 89 | 1011.5 |
| 20260904015902 | 80 | 115 | 0.0 | 1.0 | 0.00 | 0.00 | 0.00 | 89 | 1011.7 |
| 20260904015402 | 80 | 142 | 0.0 | 1.0 | 0.00 | 0.00 | 0.00 | 89 | 1011.7 |
| 20260904014929 | 80 | 142 | 0.0 | 0.0 | 0.00 | 0.00 | 0.00 | 89 | 1011.7 |
| 20260904014922 | 80 | 142 | 0.0 | 1.0 | 0.00 | 0.00 | 0.00 | 89 | 1011.7 |
| 20260904014648 | 80 | 142 | 0.0 | 1.0 | 0.00 | 0.00 | 0.00 | 89 | 1011.6 |
| 20260904013934 | 80 | 159 | 0.0 | 0.0 | 0.00 | 0.00 | 0.00 | 88 | 1011.7 |
| 20260904013924 | 80 | 159 | 0.0 | 0.0 | 0.00 | 0.00 | 0.00 | 89 | 1011.7 |
| 20260904013003 | 80 | 159 | 0.0 | 0.0 | 0.00 | 0.00 | 0.00 | 88 | 1011.6 |
| 20260904012903 | 80 | 159 | 0.0 | 0.0 | 0.00 | 0.00 | 0.00 | 88 | 1011.5 |
| 20260904012402 | 80 | 159 | 0.0 | 1.0 | 0.00 | 0.00 | 0.00 | 88 | 1011.5 |
| 20260904012149 | 81 | 128 | 0.0 | 1.0 | 0.00 | 0.00 | 0.00 | 88 | 1011.5 |
| 20260904011504 | 80 | 128 | 0.0 | 1.0 | 0.00 | 0.00 | 0.00 | 88 | 1011.3 |
| 20260904011402 | 81 | 128 | 0.0 | 1.0 | 0.00 | 0.00 | 0.00 | 88 | 1011.2 |
| 20260904011148 | 81 | 123 | 0.0 | 1.0 | 0.00 | 0.00 | 0.00 | 88 | 1011.2 |
| 20260904010403 | 81 | 130 | 0.0 | 0.0 | 0.00 | 0.00 | 0.00 | 87 | 1011.2 |
| 20260904010041 | 81 | 130 | 0.0 | 0.0 | 0.00 | 0.00 | 0.00 | 87 | 1011.1 |
| 20260904005901 | 81 | 130 | 0.0 | 1.0 | 0.00 | 0.00 | 0.00 | 87 | 1011.0 |
| 20260904005401 | 81 | 130 | 1.0 | 2.0 | 0.00 | 0.00 | 0.00 | 87 | 1011.0 |
| 20260904004903 | 81 | 130 | 1.0 | 3.0 | 0.00 | 0.00 | 0.00 | 87 | 1011.0 |
| 20260904004521 | 81 | 96 | 1.0 | 3.0 | 0.00 | 0.00 | 0.00 | 87 | 1010.8 |
| 20260904004401 | 82 | 120 | 1.0 | 3.0 | 0.00 | 0.00 | 0.00 | 87 | 1011.0 |
| 20260904004149 | 82 | 93 | 1.0 | 3.0 | 0.00 | 0.00 | 0.00 | 86 | 1011.0 |
| 20260904003353 | 82 | 103 | 2.0 | 3.0 | 0.00 | 0.00 | 0.00 | 86 | 1011.0 |
| 20260904003004 | 82 | 112 | 1.0 | 3.0 | 0.00 | 0.00 | 0.00 | 86 | 1010.9 |
| 20260904002849 | 82 | 107 | 2.0 | 3.0 | 0.00 | 0.00 | 0.00 | 86 | 1011.0 |
| 20260904002348 | 82 | 117 | 3.0 | 5.0 | 0.00 | 0.00 | 0.00 | 86 | 1011.0 |
| 20260904002140 | 82 | 104 | 3.0 | 7.0 | 0.00 | 0.00 | 0.00 | 86 | 1011.0 |
| 20260904001506 | 82 | 118 | 3.0 | 7.0 | 0.00 | 0.00 | 0.00 | 86 | 1010.8 |
| 20260904001346 | 82 | 104 | 4.0 | 7.0 | 0.00 | 0.00 | 0.00 | 86 | 1011.1 |
| 20260904000845 | 82 | 96 | 3.0 | 6.0 | 0.00 | 0.00 | 0.00 | 86 | 1011.1 |
| 20260904000344 | 82 | 111 | 3.0 | 5.0 | 0.00 | 0.00 | 0.00 | 86 | 1011.1 |
| 20260904000140 | 82 | 98 | 1.0 | 5.0 | 0.00 | 0.00 | 0.00 | 87 | 1011.0 |
| 20260903235845 | 82 | 141 | 3.0 | 6.0 | 0.00 | 0.00 | 0.00 | 86 | 1010.9 |
| 20260903235345 | 82 | 115 | 3.0 | 6.0 | 0.00 | 0.00 | 0.00 | 87 | 1010.9 |
| 20260903234845 | 83 | 119 | 4.0 | 8.0 | 0.00 | 0.00 | 0.00 | 87 | 1010.9 |
| 20260903234553 | 82 | 148 | 3.0 | 8.0 | 0.00 | 0.00 | 0.00 | 87 | 1010.8 |
| 20260903234344 | 83 | 113 | 5.0 | 11.0 | 0.00 | 0.00 | 0.00 | 87 | 1010.5 |
| 20260903233844 | 83 | 103 | 5.0 | 11.0 | 0.00 | 0.00 | 0.00 | 87 | 1010.5 |
| 20260903233346 | 83 | 109 | 5.0 | 8.0 | 0.00 | 0.00 | 0.00 | 88 | 1010.5 |
| 20260903233035 | 83 | 115 | 4.0 | 10.0 | 0.00 | 0.00 | 0.00 | 87 | 1010.4 |
| 20260903232839 | 83 | 113 | 5.0 | 10.0 | 0.00 | 0.00 | 0.00 | 88 | 1010.6 |
| 20260903232639 | 83 | 123 | 5.0 | 10.0 | 0.00 | 0.00 | 0.00 | 88 | 1010.6 |
| 20260903231839 | 83 | 94 | 5.0 | 10.0 | 0.00 | 0.00 | 0.00 | 88 | 1010.6 |
| 20260903231637 | 84 | 96 | 5.0 | 8.0 | 0.00 | 0.00 | 0.00 | 88 | 1010.7 |
| 20260903231621 | 83 | 103 | 5.0 | 10.0 | 0.00 | 0.00 | 0.00 | 88 | 1010.5 |
| 20260903230836 | 84 | 148 | 4.0 | 8.0 | 0.00 | 0.00 | 0.00 | 88 | 1010.7 |
| 20260903230336 | 84 | 107 | 3.0 | 8.0 | 0.00 | 0.00 | 0.00 | 88 | 1010.7 |
| 20260903230013 | 83 | 112 | 2.0 | 6.0 | 0.00 | 0.00 | 0.00 | 88 | 1010.6 |
| 20260903225836 | 84 | 121 | 4.0 | 7.0 | 0.00 | 0.00 | 0.00 | 88 | 1010.7 |
| 20260903225335 | 84 | 108 | 5.0 | 8.0 | 0.00 | 0.00 | 0.00 | 88 | 1010.7 |
| 20260903224836 | 84 | 121 | 5.0 | 9.0 | 0.00 | 0.00 | 0.00 | 87 | 1010.7 |
| 20260903224506 | 84 | 87 | 6.0 | 9.0 | 0.00 | 0.00 | 0.00 | 87 | 1010.6 |
| 20260903224335 | 84 | 111 | 4.0 | 9.0 | 0.00 | 0.00 | 0.00 | 87 | 1010.5 |
| 20260903223832 | 84 | 98 | 4.0 | 7.0 | 0.00 | 0.00 | 0.00 | 87 | 1010.5 |
| 20260903223331 | 84 | 92 | 4.0 | 8.0 | 0.00 | 0.00 | 0.00 | 87 | 1010.5 |
| 20260903223052 | 84 | 94 | 4.0 | 8.0 | 0.00 | 0.00 | 0.00 | 86 | 1010.4 |
| 20260903222831 | 84 | 98 | 4.0 | 8.0 | 0.00 | 0.00 | 0.00 | 86 | 1010.5 |
| 20260903222628 | 84 | 115 | 5.0 | 8.0 | 0.00 | 0.00 | 0.00 | 86 | 1010.5 |
| 20260903221819 | 84 | 127 | 5.0 | 8.0 | 0.00 | 0.00 | 0.00 | 86 | 1010.5 |
| 20260903221553 | 84 | 98 | 5.0 | 9.0 | 0.00 | 0.00 | 0.00 | 86 | 1010.3 |
| 20260903221319 | 84 | 89 | 5.0 | 9.0 | 0.00 | 0.00 | 0.00 | 86 | 1010.3 |
| 20260903220819 | 84 | 126 | 5.0 | 9.0 | 0.00 | 0.00 | 0.00 | 86 | 1010.3 |
| 20260903220318 | 84 | 123 | 5.0 | 9.0 | 0.00 | 0.00 | 0.00 | 86 | 1010.3 |
| 20260903220056 | 84 | 127 | 6.0 | 9.0 | 0.00 | 0.00 | 0.00 | 86 | 1010.2 |
| 20260903215820 | 84 | 119 | 5.0 | 9.0 | 0.00 | 0.00 | 0.00 | 86 | 1010.4 |
| 20260903215316 | 85 | 127 | 5.0 | 9.0 | 0.00 | 0.00 | 0.00 | 86 | 1010.4 |
| 20260903214815 | 85 | 120 | 5.0 | 9.0 | 0.00 | 0.00 | 0.00 | 86 | 1010.4 |
| 20260903214550 | 84 | 136 | 5.0 | 9.0 | 0.00 | 0.00 | 0.00 | 86 | 1010.3 |
| 20260903214315 | 85 | 134 | 6.0 | 10.0 | 0.00 | 0.00 | 0.00 | 86 | 1010.4 |
| 20260903213814 | 85 | 107 | 6.0 | 11.0 | 0.00 | 0.00 | 0.00 | 85 | 1010.4 |
| 20260903213314 | 85 | 111 | 7.0 | 11.0 | 0.00 | 0.00 | 0.00 | 85 | 1010.4 |
| 20260903213037 | 85 | 103 | 6.0 | 10.0 | 0.00 | 0.00 | 0.00 | 85 | 1010.3 |
| 20260903212815 | 85 | 124 | 6.0 | 10.0 | 0.00 | 0.00 | 0.00 | 85 | 1010.5 |
| 20260903212313 | 85 | 98 | 7.0 | 12.0 | 0.00 | 0.00 | 0.00 | 85 | 1010.5 |